• In Hungary
  • List of Countries
  • For 7 days
  • Water Temperature
  • Satellite Maps
  • Weather Map
  • News
  • Weather Widgets
  • user-avatar
    Login

    Hourly Weather Kota

    Today, 17 July, Tuesday

    Time Temperature Precipitation Wind Pressure Humidity
    00:00 +34°C° 1.4 mm 2 mps 726 mmHg 68%
    01:00 +34°C° 1.4 mm 2 mps 725 mmHg 70%
    02:00 +32°C° 1.4 mm 2 mps 725 mmHg 72%
    03:00 +32°C° 1.8 mm 2 mps 725 mmHg 73%
    04:00 +32°C° 1.8 mm 2 mps 725 mmHg 74%
    05:00 +31°C° 0 mm 1 mps 725 mmHg 76%
    06:00 +32°C° 0.8 mm 2 mps 725 mmHg 72%
    07:00 +34°C° 0.8 mm 2 mps 726 mmHg 68%
    08:00 +35°C° 0.8 mm 2 mps 726 mmHg 63%
    09:00 +36°C° 1.4 mm 2 mps 726 mmHg 61%
    10:00 +36°C° 1.4 mm 2 mps 726 mmHg 58%
    11:00 +37°C° 0 mm 3 mps 726 mmHg 56%
    12:00 +37°C° 1.9 mm 3 mps 726 mmHg 54%
    13:00 +38°C° 1.9 mm 3 mps 725 mmHg 52%
    14:00 +38°C° 1.9 mm 3 mps 725 mmHg 50%
    15:00 +38°C° 0.2 mm 2 mps 725 mmHg 49%
    16:00 +39°C° 0.2 mm 2 mps 724 mmHg 48%
    17:00 +39°C° 0.2 mm 2 mps 724 mmHg 48%
    18:00 +38°C° 0.2 mm 2 mps 724 mmHg 52%
    19:00 +37°C° 0.2 mm 3 mps 725 mmHg 56%
    20:00 +36°C° 0.2 mm 3 mps 725 mmHg 60%
    21:00 +35°C° 1 mm 3 mps 725 mmHg 63%
    22:00 +34°C° 1 mm 4 mps 725 mmHg 66%
    23:00 +34°C° 1 mm 4 mps 726 mmHg 69%

    Tomorrow, 18 July, Wednesday

    Time Temperature Precipitation Wind Pressure Humidity
    00:00 +33°C° 0.4 mm 4 mps 725 mmHg 71%
    01:00 +33°C° 0.4 mm 4 mps 725 mmHg 72%
    02:00 +32°C° 0.4 mm 4 mps 725 mmHg 74%
    03:00 +32°C° 0.2 mm 4 mps 725 mmHg 74%
    04:00 +32°C° 0.2 mm 4 mps 725 mmHg 75%
    05:00 +32°C° 0.2 mm 4 mps 725 mmHg 76%
    06:00 +32°C° 1.2 mm 4 mps 725 mmHg 74%
    07:00 +33°C° 1.2 mm 4 mps 726 mmHg 72%
    08:00 +33°C° 1.2 mm 4 mps 726 mmHg 70%
    09:00 +34°C° 2.3 mm 3 mps 726 mmHg 66%
    10:00 +35°C° 2.3 mm 2 mps 727 mmHg 62%
    11:00 +36°C° 2.3 mm 2 mps 727 mmHg 58%
    12:00 +35°C° 1 mm 2 mps 726 mmHg 60%
    13:00 +35°C° 1 mm 2 mps 726 mmHg 61%
    14:00 +35°C° 1 mm 2 mps 726 mmHg 63%
    15:00 +34°C° 0.3 mm 2 mps 725 mmHg 65%
    16:00 +34°C° 0.3 mm 2 mps 725 mmHg 67%
    17:00 +34°C° 0.3 mm 2 mps 725 mmHg 69%
    18:00 +33°C° 1 mm 3 mps 725 mmHg 71%
    19:00 +33°C° 1 mm 3 mps 726 mmHg 73%
    20:00 +33°C° 1 mm 3 mps 726 mmHg 76%
    21:00 +31°C° 0.5 mm 3 mps 726 mmHg 76%
    22:00 +31°C° 0.5 mm 3 mps 726 mmHg 77%
    23:00 +32°C° 0.5 mm 4 mps 726 mmHg 78%

    Day after tomorrow, 19 July, Thursday

    Time Temperature Precipitation Wind Pressure Humidity
    00:00 +32°C° 0.6 mm 4 mps 726 mmHg 78%
    01:00 +30°C° 0.6 mm 4 mps 726 mmHg 78%
    02:00 +30°C° 0.6 mm 4 mps 725 mmHg 78%
    03:00 +30°C° 0.8 mm 4 mps 725 mmHg 80%
    04:00 +30°C° 0.8 mm 4 mps 726 mmHg 81%
    05:00 +30°C° 0.8 mm 3 mps 726 mmHg 83%
    06:00 +30°C° 1.3 mm 4 mps 726 mmHg 83%
    07:00 +30°C° 1.3 mm 4 mps 726 mmHg 83%
    08:00 +30°C° 1.3 mm 4 mps 726 mmHg 83%
    09:00 +30°C° 3.4 mm 4 mps 727 mmHg 82%
    10:00 +30°C° 3.4 mm 4 mps 727 mmHg 82%
    11:00 +30°C° 3.4 mm 3 mps 727 mmHg 81%
    12:00 +30°C° 3.6 mm 4 mps 727 mmHg 82%
    13:00 +30°C° 3.6 mm 4 mps 727 mmHg 83%
    14:00 +30°C° 3.6 mm 4 mps 726 mmHg 83%
    15:00 +29°C° 2.5 mm 4 mps 726 mmHg 84%
    16:00 +29°C° 2.5 mm 4 mps 726 mmHg 85%
    17:00 +29°C° 2.5 mm 5 mps 726 mmHg 86%
    18:00 +29°C° 0.1 mm 4 mps 726 mmHg 86%
    19:00 +29°C° 0.1 mm 4 mps 726 mmHg 85%
    20:00 +29°C° 0.1 mm 4 mps 727 mmHg 85%
    21:00 +29°C° 0.1 mm 4 mps 727 mmHg 85%
    22:00 +29°C° 0.1 mm 4 mps 727 mmHg 85%
    23:00 +28°C° 0.1 mm 4 mps 727 mmHg 85%

    20 July, Friday

    Time Temperature Precipitation Wind Pressure Humidity
    00:00 +28°C° 0 mm 4 mps 727 mmHg 85%
    01:00 +28°C° 0 mm 4 mps 726 mmHg 85%
    02:00 +28°C° 0 mm 5 mps 726 mmHg 85%
    03:00 +28°C° 0.3 mm 5 mps 726 mmHg 85%
    04:00 +28°C° 0.3 mm 5 mps 726 mmHg 85%
    05:00 +28°C° 0.3 mm 5 mps 726 mmHg 85%
    06:00 +28°C° 0.9 mm 5 mps 726 mmHg 83%
    07:00 +29°C° 0.9 mm 5 mps 727 mmHg 81%
    08:00 +29°C° 0.9 mm 5 mps 727 mmHg 79%
    09:00 +30°C° 0.8 mm 5 mps 727 mmHg 76%
    10:00 +32°C° 0.8 mm 6 mps 727 mmHg 72%
    11:00 +33°C° 0.8 mm 6 mps 727 mmHg 69%
    12:00 +33°C° 2 mm 6 mps 727 mmHg 68%
    13:00 +33°C° 2 mm 6 mps 727 mmHg 68%
    14:00 +33°C° 2 mm 6 mps 726 mmHg 67%
    15:00 +33°C° 1.3 mm 6 mps 726 mmHg 69%
    16:00 +32°C° 1.3 mm 5 mps 726 mmHg 72%
    17:00 +32°C° 1.3 mm 4 mps 726 mmHg 74%
    18:00 +32°C° 0.2 mm 4 mps 726 mmHg 76%
    19:00 +30°C° 0.2 mm 3 mps 726 mmHg 78%
    20:00 +30°C° 0.2 mm 3 mps 726 mmHg 80%
    21:00 +30°C° 0.4 mm 3 mps 726 mmHg 80%
    22:00 +30°C° 0.4 mm 3 mps 727 mmHg 81%
    23:00 +30°C° 0.4 mm 3 mps 727 mmHg 81%

    21 July, Saturday

    Time Temperature Precipitation Wind Pressure Humidity
    00:00 +29°C° 0.5 mm 3 mps 727 mmHg 81%
    01:00 +29°C° 0.5 mm 4 mps 726 mmHg 81%
    02:00 +29°C° 0.5 mm 4 mps 726 mmHg 81%
    03:00 +29°C° 0.4 mm 4 mps 726 mmHg 82%
    04:00 +29°C° 0.4 mm 4 mps 726 mmHg 82%
    05:00 +28°C° 0.4 mm 4 mps 726 mmHg 82%
    06:00 +29°C° 0 mm 5 mps 727 mmHg 79%
    07:00 +29°C° 0 mm 5 mps 727 mmHg 76%
    08:00 +30°C° 0 mm 6 mps 728 mmHg 73%
    09:00 +32°C° 0 mm 6 mps 728 mmHg 69%
    10:00 +33°C° 0 mm 6 mps 728 mmHg 65%
    11:00 +34°C° 0 mm 6 mps 728 mmHg 61%
    12:00 +34°C° 0 mm 6 mps 727 mmHg 58%
    13:00 +35°C° 0 mm 5 mps 727 mmHg 55%
    14:00 +36°C° 0 mm 5 mps 726 mmHg 51%
    15:00 +36°C° 0.1 mm 5 mps 726 mmHg 52%
    16:00 +36°C° 0.1 mm 5 mps 726 mmHg 53%
    17:00 +36°C° 0.1 mm 5 mps 726 mmHg 54%
    18:00 +35°C° 0.1 mm 5 mps 726 mmHg 57%
    19:00 +34°C° 0.1 mm 5 mps 726 mmHg 61%
    20:00 +33°C° 0.1 mm 5 mps 727 mmHg 64%
    21:00 +33°C° 0 mm 6 mps 727 mmHg 66%
    22:00 +32°C° 0 mm 6 mps 727 mmHg 68%
    23:00 +30°C° 0 mm 6 mps 727 mmHg 70%

    22 July, Sunday

    Time Temperature Precipitation Wind Pressure Humidity
    00:00 +30°C° 0 mm 6 mps 727 mmHg 71%
    01:00 +30°C° 0 mm 6 mps 726 mmHg 73%
    02:00 +29°C° 0 mm 6 mps 726 mmHg 74%
    03:00 +29°C° 0 mm 6 mps 726 mmHg 75%
    04:00 +29°C° 0 mm 6 mps 726 mmHg 75%
    05:00 +28°C° 0 mm 6 mps 726 mmHg 76%
    06:00 +29°C° 0 mm 6 mps 727 mmHg 73%
    07:00 +29°C° 0 mm 6 mps 727 mmHg 71%
    08:00 +30°C° 0 mm 7 mps 727 mmHg 68%
    09:00 +32°C° 0 mm 7 mps 727 mmHg 65%
    10:00 +33°C° 0 mm 7 mps 727 mmHg 61%
    11:00 +34°C° 0 mm 7 mps 727 mmHg 57%
    12:00 +34°C° 0 mm 7 mps 727 mmHg 57%
    13:00 +34°C° 0 mm 7 mps 726 mmHg 57%
    14:00 +34°C° 0 mm 7 mps 726 mmHg 57%
    15:00 +34°C° 0 mm 6 mps 726 mmHg 58%
    16:00 +33°C° 0 mm 6 mps 725 mmHg 59%
    17:00 +33°C° 0 mm 6 mps 725 mmHg 59%
    18:00 +33°C° 0 mm 6 mps 725 mmHg 62%
    19:00 +32°C° 0 mm 6 mps 726 mmHg 65%
    20:00 +32°C° 0 mm 5 mps 726 mmHg 67%
    21:00 +30°C° 0 mm 5 mps 726 mmHg 69%
    22:00 +30°C° 0 mm 5 mps 726 mmHg 70%
    23:00 +30°C° 0 mm 6 mps 726 mmHg 72%
    Show more